CW1035 Weather Reports


time (UTC)temp
C
wind
direction
speed
KPH
gust
KPH
rain 1hr
cm
rain 24hr
cm
rain mn
cm
humidity
%
barometer
mb
20260508041649 10 268 3.2 9.7 0.00 0.00 0.00 86 1017.9
20260508041149 10 257 3.2 9.7 0.00 0.00 0.00 86 1017.9
20260508040649 10 262 4.8 11.3 0.00 0.00 0.00 86 1018.0
20260508040149 10 294 4.8 11.3 0.00 0.00 0.00 86 1017.9
20260508035649 10 268 4.8 6.4 0.00 0.00 0.00 86 1018.0
20260508035149 10 285 4.8 8.0 0.00 0.00 0.00 86 1018.0
20260508034648 10 265 4.8 9.7 0.00 0.00 0.00 85 1017.9
20260508034148 10 253 4.8 9.7 0.00 0.00 0.00 85 1017.9
20260508033149 10 259 3.2 8.0 0.00 0.00 0.00 85 1017.8
20260508032648 10 252 3.2 11.3 0.00 0.00 0.00 84 1017.8
20260508032148 11 281 6.4 11.3 0.00 0.00 0.00 84 1017.8
20260508031648 11 262 6.4 9.7 0.00 0.00 0.00 84 1017.9
20260508031148 11 263 4.8 9.7 0.00 0.00 0.00 84 1017.8
20260508030648 11 257 1.6 9.7 0.00 0.00 0.00 84 1017.8
20260508030148 11 288 6.4 12.9 0.00 0.00 0.00 83 1017.9
20260508025648 11 254 4.8 12.9 0.00 0.00 0.00 83 1017.9
20260508025147 11 275 4.8 14.5 0.00 0.00 0.00 83 1017.9
20260508024647 11 251 3.2 14.5 0.00 0.00 0.00 82 1018.0
20260508024147 11 267 6.4 14.5 0.00 0.00 0.00 82 1018.0
20260508023647 11 288 11.3 14.5 0.00 0.00 0.00 81 1018.0
20260508023147 12 241 6.4 14.5 0.00 0.00 0.00 81 1018.1
20260508022647 12 278 4.8 12.9 0.00 0.00 0.00 81 1018.1
20260508022147 12 250 6.4 14.5 0.00 0.00 0.00 81 1018.2
20260508021647 12 293 6.4 14.5 0.00 0.00 0.00 81 1018.2
20260508021147 12 281 6.4 11.3 0.00 0.00 0.00 81 1018.2
20260508020647 12 298 8.0 11.3 0.00 0.00 0.00 81 1018.2
20260508020147 12 317 6.4 11.3 0.00 0.00 0.00 80 1018.2
20260508015647 12 292 6.4 14.5 0.00 0.00 0.00 78 1018.2
20260508014647 13 287 8.0 11.3 0.00 0.00 0.00 75 1018.3
20260508014146 13 268 3.2 11.3 0.00 0.00 0.00 75 1018.3
20260508013646 13 339 3.2 11.3 0.00 0.00 0.00 74 1018.4
20260508013146 14 274 3.2 9.7 0.00 0.00 0.00 73 1018.5
20260508012646 14 301 3.2 9.7 0.00 0.00 0.00 73 1018.4
20260508012146 15 275 3.2 8.0 0.00 0.00 0.00 72 1018.4
20260508011646 15 13 4.8 6.4 0.00 0.00 0.00 70 1018.5
20260508011146 15 9 3.2 4.8 0.00 0.00 0.00 70 1018.6
20260508010646 15 15 4.8 4.8 0.00 0.00 0.00 70 1018.6
20260508010145 15 18 0.0 4.8 0.00 0.00 0.00 71 1018.6
20260508005646 15 46 3.2 4.8 0.00 0.00 0.00 71 1018.6
20260508005145 15 8 0.0 4.8 0.00 0.00 0.00 71 1018.6
20260508004645 15 357 3.2 4.8 0.00 0.00 0.00 72 1018.6
20260508004145 15 63 1.6 4.8 0.00 0.00 0.00 70 1018.6
20260508003646 15 58 3.2 4.8 0.00 0.00 0.00 71 1018.7
20260508003145 15 91 0.0 3.2 0.00 0.00 0.00 72 1018.7
20260508002645 15 77 0.0 4.8 0.00 0.00 0.00 71 1018.7
20260508002145 15 77 1.6 4.8 0.00 0.00 0.00 72 1018.7
20260508001645 15 88 4.8 4.8 0.00 0.00 0.00 71 1018.8
20260508001145 15 73 4.8 4.8 0.00 0.00 0.00 71 1018.8
20260508000645 15 82 3.2 6.4 0.00 0.00 0.00 70 1018.8
20260507235645 14 96 0.0 4.8 0.00 0.00 0.00 73 1018.8
20260507235144 14 35 1.6 4.8 0.00 0.00 0.00 72 1018.8
20260507234644 14 29 3.2 4.8 0.00 0.00 0.00 72 1018.8
20260507234144 14 29 3.2 4.8 0.00 0.00 0.00 72 1018.8
20260507233644 14 85 3.2 4.8 0.00 0.00 0.00 72 1018.8
20260507233144 14 83 3.2 4.8 0.00 0.00 0.00 73 1018.9
20260507232644 14 53 1.6 4.8 0.00 0.00 0.00 73 1018.9
20260507231644 14 46 1.6 6.4 0.00 0.00 0.00 74 1019.0
20260507231143 14 68 3.2 6.4 0.00 0.00 0.00 74 1019.1
20260507230144 13 66 1.6 6.4 0.00 0.00 0.00 75 1019.2
20260507225644 13 35 1.6 6.4 0.00 0.00 0.00 75 1019.2
20260507225144 14 27 4.8 6.4 0.00 0.00 0.00 75 1019.3
20260507224643 14 63 0.0 8.0 0.00 0.00 0.00 75 1019.3
20260507224143 13 73 1.6 8.0 0.00 0.00 0.00 74 1019.4
20260507223643 13 85 1.6 8.0 0.00 0.00 0.00 75 1019.4
20260507223143 13 359 3.2 8.0 0.00 0.00 0.00 74 1019.5
20260507222643 13 82 1.6 8.0 0.00 0.00 0.00 74 1019.5
20260507222143 13 39 1.6 6.4 0.00 0.00 0.00 77 1019.6
20260507221643 13 85 1.6 6.4 0.00 0.00 0.00 76 1019.6
20260507220642 13 98 4.8 8.0 0.00 0.00 0.00 75 1019.8
20260507220143 13 81 4.8 8.0 0.00 0.00 0.00 74 1019.8
20260507215142 14 23 4.8 8.0 0.00 0.00 0.00 74 1020.0
20260507214643 14 86 1.6 6.4 0.00 0.00 0.00 74 1019.9
20260507214142 14 83 4.8 8.0 0.00 0.00 0.00 74 1020.0
20260507213642 14 70 4.8 8.0 0.00 0.00 0.00 71 1020.1
20260507213142 14 95 4.8 8.0 0.00 0.00 0.00 72 1020.1
20260507212642 14 82 3.2 8.0 0.00 0.00 0.00 74 1020.1
20260507212142 14 104 4.8 8.0 0.00 0.00 0.00 73 1020.3
20260507211142 13 48 0.0 8.0 0.00 0.00 0.00 73 1020.4
20260507210641 13 84 3.2 8.0 0.00 0.00 0.00 75 1020.4
20260507205641 13 53 3.2 9.7 0.00 0.00 0.00 77 1020.6
20260507205141 13 89 4.8 9.7 0.00 0.00 0.00 76 1020.6
20260507204141 13 52 6.4 11.3 0.00 0.00 0.00 77 1020.7
20260507203641 12 40 4.8 8.0 0.00 0.00 0.00 76 1020.8
20260507203141 12 80 3.2 9.7 0.00 0.00 0.00 77 1020.9
20260507202641 13 34 3.2 11.3 0.00 0.00 0.00 76 1020.9
20260507202141 12 46 3.2 11.3 0.00 0.00 0.00 77 1021.0
20260507201141 12 24 6.4 11.3 0.00 0.00 0.00 77 1021.0
20260507200641 12 22 6.4 9.7 0.00 0.00 0.00 77 1021.1
20260507200211 12 25 6.4 8.0 0.00 0.00 0.00 78 1021.1
20260507195640 12 8 4.8 8.0 0.00 0.00 0.00 77 1021.1
20260507195141 12 338 1.6 11.3 0.00 0.00 0.00 79 1021.1
20260507194641 12 3 3.2 11.3 0.00 0.00 0.00 79 1021.1
20260507194140 12 78 3.2 11.3 0.00 0.00 0.00 79 1021.1
20260507193641 12 129 1.6 11.3 0.00 0.00 0.00 79 1021.2
20260507193141 12 28 6.4 12.9 0.00 0.00 0.00 78 1021.2
20260507192640 12 37 8.0 12.9 0.00 0.00 0.00 78 1021.3
20260507192140 12 88 3.2 9.7 0.00 0.00 0.00 77 1021.3
20260507191640 12 22 4.8 9.7 0.00 0.00 0.00 78 1021.3
20260507191140 12 87 1.6 9.7 0.00 0.00 0.00 77 1021.4
20260507190640 12 62 3.2 11.3 0.00 0.00 0.00 78 1021.4
20260507190140 12 22 3.2 11.3 0.00 0.00 0.00 79 1021.4
20260507185640 11 27 6.4 11.3 0.00 0.00 0.00 78 1021.4
20260507185140 12 20 8.0 14.5 0.00 0.00 0.00 78 1021.4
20260507184639 11 65 4.8 14.5 0.00 0.00 0.00 79 1021.5
20260507184139 12 66 3.2 11.3 0.00 0.00 0.00 78 1021.5
20260507183639 12 63 6.4 11.3 0.00 0.00 0.00 77 1021.5
20260507182639 12 11 1.6 6.4 0.00 0.00 0.00 78 1021.6
20260507182139 11 221 0.0 11.3 0.00 0.00 0.00 80 1021.6
20260507181639 11 51 4.8 11.3 0.00 0.00 0.00 79 1021.7
20260507181139 11 84 6.4 9.7 0.00 0.00 0.00 79 1021.7
20260507180638 11 40 3.2 9.7 0.00 0.00 0.00 78 1021.7
20260507175638 11 58 6.4 9.7 0.00 0.00 0.00 79 1021.7
20260507175138 11 41 4.8 8.0 0.00 0.00 0.00 78 1021.7
20260507174639 12 17 3.2 11.3 0.00 0.00 0.00 78 1021.7
20260507173638 12 11 6.4 9.7 0.00 0.00 0.00 76 1021.7
20260507173138 12 360 4.8 14.5 0.00 0.00 0.00 78 1021.7
20260507172638 11 321 4.8 14.5 0.00 0.00 0.00 77 1021.7
20260507172138 11 337 6.4 12.9 0.00 0.00 0.00 77 1021.6
20260507171638 11 23 4.8 16.1 0.00 0.00 0.00 77 1021.6
20260507171138 12 45 11.3 16.1 0.00 0.00 0.00 76 1021.6
20260507170637 12 321 1.6 8.0 0.00 0.00 0.00 78 1021.6
20260507165638 11 61 0.0 9.7 0.00 0.03 0.00 79 1021.5
20260507165207 11 7 3.2 9.7 0.00 0.03 0.00 79 1021.6
20260507164707 11 261 6.4 8.0 0.00 0.03 0.00 78 1021.6
20260507164207 11 311 0.0 8.0 0.00 0.03 0.00 80 1021.6
20260507163707 11 35 3.2 8.0 0.00 0.03 0.00 80 1021.6
20260507163137 11 41 1.6 4.8 0.00 0.03 0.00 81 1021.7
20260507162137 11 324 3.2 6.4 0.00 0.03 0.00 82 1021.6
20260507161707 11 311 1.6 6.4 0.00 0.03 0.00 81 1021.7
20260507160637 10 320 0.0 8.0 0.00 0.03 0.00 82 1021.6
20260507160207 10 285 3.2 9.7 0.00 0.03 0.00 82 1021.7
20260507155136 10 308 6.4 6.4 0.00 0.03 0.00 83 1021.8
20260507154637 10 278 4.8 9.7 0.00 0.03 0.00 82 1021.8
20260507154136 10 289 6.4 9.7 0.00 0.03 0.00 82 1021.8
20260507153707 10 304 6.4 6.4 0.00 0.03 0.00 83 1021.9
20260507153136 10 260 0.0 8.0 0.00 0.03 0.00 83 1021.9
20260507152706 10 291 3.2 8.0 0.00 0.03 0.00 83 1021.9
20260507151636 10 240 1.6 9.7 0.00 0.03 0.00 83 1021.9
20260507151136 10 286 4.8 9.7 0.00 0.03 0.00 83 1021.8
20260507150706 10 259 3.2 8.0 0.00 0.03 0.00 82 1021.8
20260507150206 10 270 4.8 8.0 0.00 0.03 0.00 82 1021.8
20260507145706 10 297 3.2 8.0 0.00 0.03 0.00 82 1021.8
20260507145135 10 298 3.2 6.4 0.00 0.03 0.00 82 1021.7
20260507144635 10 268 0.0 4.8 0.00 0.03 0.00 82 1021.7
20260507144136 10 277 3.2 8.0 0.00 0.03 0.00 82 1021.7
20260507143705 10 260 1.6 8.0 0.00 0.03 0.00 83 1021.6
20260507143135 10 314 8.0 9.7 0.00 0.03 0.00 84 1021.6
20260507142705 10 288 3.2 9.7 0.00 0.03 0.00 84 1021.6
20260507142205 9 281 3.2 6.4 0.00 0.03 0.00 84 1021.6
20260507141705 9 337 6.4 8.0 0.00 0.03 0.00 84 1021.5
20260507141135 9 300 4.8 8.0 0.00 0.03 0.00 84 1021.5
20260507135705 9 253 4.8 11.3 0.00 0.03 0.00 85 1021.4
20260507135204 9 269 3.2 11.3 0.00 0.03 0.00 85 1021.4
20260507134704 9 273 3.2 8.0 0.00 0.03 0.00 85 1021.4
20260507134204 9 259 3.2 11.3 0.00 0.03 0.00 85 1021.5
20260507133704 9 276 3.2 11.3 0.00 0.03 0.00 85 1021.4
20260507133204 9 279 4.8 11.3 0.00 0.03 0.00 86 1021.5
20260507132704 8 280 4.8 9.7 0.00 0.03 0.00 86 1021.5
20260507132203 8 281 4.8 8.0 0.00 0.03 0.00 86 1021.5
20260507131204 8 287 4.8 6.4 0.00 0.03 0.00 87 1021.6
20260507130704 8 286 4.8 8.0 0.00 0.03 0.00 87 1021.5
20260507130203 8 265 1.6 8.0 0.00 0.03 0.00 87 1021.5
20260507125703 8 281 3.2 8.0 0.00 0.03 0.00 87 1021.5
20260507125203 8 265 3.2 9.7 0.00 0.03 0.00 87 1021.5
20260507124704 8 286 8.0 9.7 0.00 0.03 0.00 87 1021.6
20260507124203 9 258 3.2 9.7 0.00 0.03 0.00 87 1021.6
20260507123703 9 298 0.0 12.9 0.00 0.03 0.00 87 1021.6
20260507123203 9 245 3.2 12.9 0.00 0.03 0.00 87 1021.6
20260507122203 9 292 4.8 16.1 0.00 0.03 0.00 86 1021.7
20260507121702 9 294 4.8 9.7 0.00 0.03 0.00 86 1021.7
20260507121203 9 265 3.2 9.7 0.00 0.03 0.00 86 1021.8
20260507120703 9 233 1.6 11.3 0.00 0.03 0.00 86 1021.7
20260507120202 9 263 1.6 11.3 0.00 0.03 0.00 86 1021.8
20260507115702 9 288 8.0 11.3 0.00 0.03 0.00 86 1021.8
20260507115202 9 282 4.8 8.0 0.00 0.03 0.00 86 1021.9
20260507114702 9 266 3.2 11.3 0.00 0.03 0.00 86 1021.8
20260507114202 9 274 1.6 11.3 0.00 0.03 0.00 87 1021.8
20260507113702 9 254 9.7 11.3 0.00 0.03 0.00 87 1021.8
20260507113202 9 236 0.0 11.3 0.00 0.03 0.00 87 1021.8
20260507112702 9 335 3.2 11.3 0.00 0.03 0.00 87 1021.8
20260507112202 9 284 4.8 11.3 0.00 0.03 0.00 87 1021.7
20260507111702 9 304 4.8 11.3 0.00 0.03 0.00 87 1021.8
20260507111202 9 266 9.7 14.5 0.00 0.03 0.00 87 1021.8
20260507110702 9 267 6.4 14.5 0.00 0.03 0.00 87 1021.8
20260507110201 9 294 4.8 8.0 0.00 0.03 0.00 87 1021.9
20260507105201 9 284 3.2 11.3 0.00 0.03 0.00 87 1021.8
20260507104701 9 263 3.2 11.3 0.00 0.03 0.00 87 1021.8
20260507104201 9 273 3.2 12.9 0.00 0.03 0.00 88 1021.7
20260507103701 9 263 8.0 14.5 0.00 0.03 0.00 88 1021.8
20260507103201 9 257 0.0 14.5 0.00 0.03 0.00 88 1021.8
20260507102701 9 283 4.8 8.0 0.00 0.03 0.00 88 1021.8
20260507102201 9 252 3.2 12.9 0.00 0.03 0.00 88 1021.8
20260507101701 9 302 4.8 14.5 0.00 0.03 0.00 88 1021.8
20260507101200 9 279 4.8 14.5 0.00 0.03 0.00 88 1021.8
20260507100700 9 294 1.6 9.7 0.00 0.03 0.00 88 1021.8
20260507100200 9 255 3.2 11.3 0.00 0.03 0.00 88 1021.7
20260507095200 9 290 3.2 11.3 0.00 0.03 0.00 88 1021.8
20260507094700 9 262 1.6 12.9 0.00 0.03 0.00 88 1021.8
20260507094200 9 283 3.2 17.7 0.00 0.03 0.00 88 1021.8
20260507093700 9 287 6.4 17.7 0.00 0.03 0.00 88 1021.8
20260507092200 10 239 6.4 16.1 0.00 0.03 0.00 88 1021.8
20260507091200 10 258 6.4 12.9 0.00 0.03 0.00 88 1021.8
20260507090659 10 268 3.2 12.9 0.00 0.03 0.00 88 1021.8
20260507090159 10 288 6.4 16.1 0.00 0.03 0.00 88 1021.8
20260507085659 10 243 3.2 16.1 0.00 0.03 0.00 88 1021.9
20260507084659 10 257 3.2 17.7 0.00 0.03 0.00 88 1022.0
20260507083659 10 252 6.4 11.3 0.00 0.03 0.00 88 1022.0
20260507083159 10 281 1.6 11.3 0.00 0.03 0.00 89 1022.0
20260507082659 10 278 1.6 9.7 0.00 0.03 0.00 89 1022.0
20260507082158 10 289 3.2 11.3 0.00 0.03 0.00 89 1021.9
20260507081659 10 302 3.2 11.3 0.00 0.03 0.00 90 1021.9
20260507081159 10 255 1.6 11.3 0.00 0.03 0.00 90 1022.0
20260507080659 10 244 3.2 11.3 0.00 0.03 0.00 90 1021.9
20260507075658 10 274 3.2 11.3 0.00 0.03 0.00 90 1022.0
20260507075158 10 279 3.2 11.3 0.00 0.03 0.00 90 1021.9
20260507074658 10 297 6.4 11.3 0.00 0.03 0.00 90 1021.8
20260507074157 10 258 4.8 11.3 0.00 0.03 0.00 89 1021.7
20260507073658 10 306 6.4 12.9 0.00 0.03 0.00 89 1021.7
20260507073158 10 256 1.6 12.9 0.00 0.03 0.00 88 1021.7
20260507072657 10 290 6.4 9.7 0.00 0.03 0.00 88 1021.7
20260507071658 10 264 4.8 9.7 0.00 0.03 0.00 88 1021.6
20260507071157 10 280 6.4 8.0 0.00 0.03 0.00 88 1021.6
20260507070659 10 328 0.0 8.0 0.00 0.03 0.00 89 1021.6
20260507070157 10 264 3.2 8.0 0.00 0.03 0.00 89 1021.6
20260507065657 10 262 1.6 8.0 0.00 0.03 0.03 89 1021.6
20260507065157 10 248 3.2 8.0 0.00 0.03 0.03 89 1021.5
20260507064657 10 263 3.2 6.4 0.00 0.03 0.03 89 1021.5
20260507064157 10 290 4.8 6.4 0.00 0.03 0.03 89 1021.5
20260507063656 10 279 3.2 6.4 0.00 0.03 0.03 89 1021.5
20260507063156 10 272 1.6 6.4 0.00 0.03 0.03 89 1021.4
20260507062657 10 267 4.8 9.7 0.00 0.03 0.03 89 1021.5
20260507062156 10 280 3.2 9.7 0.00 0.03 0.03 89 1021.5
20260507061156 10 299 0.0 8.0 0.00 0.03 0.03 89 1021.5
20260507060656 10 283 4.8 8.0 0.00 0.03 0.03 90 1021.6
20260507060156 10 267 1.6 9.7 0.00 0.03 0.03 90 1021.6
20260507055656 10 243 0.0 11.3 0.00 0.03 0.03 90 1021.6
20260507055156 10 269 9.7 11.3 0.00 0.03 0.03 90 1021.6
20260507054656 10 263 0.0 9.7 0.00 0.03 0.03 90 1021.7
20260507053656 10 250 3.2 12.9 0.00 0.03 0.03 90 1021.6
20260507053156 10 290 11.3 12.9 0.00 0.03 0.03 90 1021.6
20260507052656 10 257 4.8 9.7 0.00 0.03 0.03 90 1021.7
20260507052155 10 274 1.6 9.7 0.00 0.03 0.03 90 1021.6
20260507051655 10 249 4.8 12.9 0.00 0.03 0.03 90 1021.7
20260507051155 10 240 6.4 14.5 0.00 0.03 0.03 90 1021.8
20260507050155 10 283 11.3 11.3 0.00 0.03 0.03 90 1021.7
20260507045655 10 256 0.0 9.7 0.00 0.03 0.03 90 1021.8
20260507045156 10 261 3.2 9.7 0.00 0.03 0.03 90 1021.8
20260507044655 10 252 0.0 9.7 0.00 0.03 0.03 90 1021.7
20260507044154 10 297 1.6 8.0 0.00 0.03 0.03 89 1021.7
20260507043654 11 319 3.2 8.0 0.00 0.03 0.03 89 1021.7
20260507043154 11 264 4.8 8.0 0.00 0.03 0.03 89 1021.7
20260507042655 11 254 3.2 8.0 0.00 0.03 0.03 89 1021.7
20260507042155 11 251 0.0 9.7 0.00 0.03 0.03 88 1021.6